CYZ9028 ZSNJ-ZYTX

Flight info

Callsign CYZ9028
Flight time 2h 7m
Altitude 35099
Route OF A470 DPX A593 DALIM W142 YQG W569 NOBUP W4 HCH W173 NIXEP W8 DOBGA W202 UDETI A588 TOSID
Aircraft B738/M-SDE2E3FGHIJ1RWXY/LB1

Departure

Time 2026-05-05 03:44
Airport Nanjing Lukou International Airport (ZSNJ)

Arrival

Time 2026-05-05 05:51
Airport Shenyang Taoxian International Airport (ZYTX)
Time Latitude Longitude Altitude Speed Heading
2026-05-05 03:24 31.72934 118.84475 58 ft 0 kts 148°
2026-05-05 03:31 31.72936 118.84474 50 ft 0 kts 148°
2026-05-05 03:31 31.72937 118.84473 51 ft 0 kts 148°
2026-05-05 03:31 31.72940 118.84471 52 ft 0 kts 148°
2026-05-05 03:32 31.72948 118.84465 53 ft 3 kts 147°
2026-05-05 03:32 31.72964 118.84454 54 ft 3 kts 130°
2026-05-05 03:32 31.72961 118.84435 54 ft 3 kts 54°
2026-05-05 03:32 31.72952 118.84416 52 ft 3 kts 64°
2026-05-05 03:33 31.72950 118.84412 52 ft 0 kts 62°
2026-05-05 03:36 31.72967 118.84449 55 ft 18 kts 62°
2026-05-05 03:36 31.72998 118.84583 51 ft 9 kts 69°
2026-05-05 03:36 31.73003 118.84588 51 ft 6 kts 41°
2026-05-05 03:37 31.73074 118.84680 53 ft 19 kts 59°
2026-05-05 03:37 31.73153 118.84824 53 ft 17 kts 54°
2026-05-05 03:37 31.73227 118.84825 55 ft 13 kts 332°
2026-05-05 03:37 31.73289 118.84843 56 ft 5 kts 60°
2026-05-05 03:38 31.73338 118.84950 57 ft 25 kts 58°
2026-05-05 03:38 31.73440 118.85142 51 ft 29 kts 58°
2026-05-05 03:38 31.73545 118.85340 55 ft 28 kts 58°
2026-05-05 03:38 31.73644 118.85526 51 ft 26 kts 58°
2026-05-05 03:39 31.73739 118.85697 55 ft 24 kts 57°
2026-05-05 03:39 31.73825 118.85859 53 ft 23 kts 58°
2026-05-05 03:39 31.73907 118.86015 54 ft 22 kts 58°
2026-05-05 03:39 31.73987 118.86166 53 ft 22 kts 58°
2026-05-05 03:40 31.74068 118.86311 53 ft 21 kts 57°
2026-05-05 03:40 31.74145 118.86453 56 ft 20 kts 57°
2026-05-05 03:40 31.74230 118.86617 54 ft 32 kts 57°
2026-05-05 03:40 31.74360 118.86854 56 ft 35 kts 58°
2026-05-05 03:41 31.74483 118.87088 55 ft 33 kts 57°
2026-05-05 03:41 31.74601 118.87307 54 ft 31 kts 57°
2026-05-05 03:41 31.74710 118.87513 56 ft 29 kts 57°
2026-05-05 03:41 31.74815 118.87706 53 ft 27 kts 58°
2026-05-05 03:42 31.74905 118.87873 54 ft 13 kts 50°
2026-05-05 03:42 31.74963 118.87886 55 ft 2 kts 328°
2026-05-05 03:42 31.75005 118.87851 56 ft 14 kts 328°
2026-05-05 03:42 31.75054 118.87763 56 ft 13 kts 268°
2026-05-05 03:43 31.75052 118.87755 56 ft 0 kts 241°
2026-05-05 03:43 31.75038 118.87727 54 ft 16 kts 239°
2026-05-05 03:43 31.74802 118.87286 53 ft 111 kts 238°
2026-05-05 03:43 31.74249 118.86259 222 ft 175 kts 238°
2026-05-05 03:44 31.73569 118.84984 1080 ft 202 kts 235°
2026-05-05 03:44 31.72833 118.83614 2325 ft 191 kts 235°
2026-05-05 03:44 31.72130 118.82294 3373 ft 196 kts 235°
2026-05-05 03:44 31.71354 118.80849 3761 ft 225 kts 236°
2026-05-05 03:45 31.70498 118.79244 4356 ft 235 kts 235°
2026-05-05 03:45 31.69617 118.77592 5113 ft 243 kts 235°
2026-05-05 03:45 31.68705 118.75893 5931 ft 247 kts 234°
2026-05-05 03:45 31.67826 118.74152 6898 ft 252 kts 245°
2026-05-05 03:46 31.67491 118.72118 7815 ft 257 kts 266°
2026-05-05 03:46 31.67466 118.70005 8805 ft 260 kts 267°
2026-05-05 03:46 31.67452 118.67909 9803 ft 261 kts 268°
2026-05-05 03:46 31.67428 118.65778 10747 ft 260 kts 269°
2026-05-05 03:47 31.67400 118.63660 11651 ft 262 kts 269°
2026-05-05 03:47 31.67453 118.61504 12483 ft 267 kts 281°
2026-05-05 03:47 31.68147 118.59498 13455 ft 268 kts 303°
2026-05-05 03:47 31.69462 118.57942 14314 ft 274 kts 324°
2026-05-05 03:48 31.71248 118.57093 15047 ft 285 kts 348°
2026-05-05 03:48 31.73248 118.57191 15795 ft 295 kts 13°
2026-05-05 03:48 31.75072 118.58347 16555 ft 306 kts 40°
2026-05-05 03:48 31.76415 118.60311 17336 ft 311 kts 54°
2026-05-05 03:49 31.77631 118.62438 18082 ft 316 kts 54°
2026-05-05 03:49 31.78873 118.64593 18776 ft 319 kts 53°
2026-05-05 03:49 31.80257 118.66626 19437 ft 319 kts 37°
2026-05-05 03:49 31.82184 118.67840 20057 ft 317 kts 10°
2026-05-05 03:50 31.84415 118.67995 20241 ft 331 kts 349°
2026-05-05 03:50 31.86744 118.67500 20404 ft 350 kts 346°
2026-05-05 03:50 31.89194 118.66904 20543 ft 370 kts 346°
2026-05-05 03:50 31.91781 118.66294 20669 ft 388 kts 347°
2026-05-05 03:51 31.94493 118.65682 20848 ft 404 kts 347°
2026-05-05 03:51 31.97277 118.65070 21320 ft 409 kts 347°
2026-05-05 03:51 32.00084 118.64457 21940 ft 411 kts 347°
2026-05-05 03:51 32.02903 118.63840 22521 ft 414 kts 347°
2026-05-05 03:52 32.05745 118.63218 23073 ft 417 kts 348°
2026-05-05 03:52 32.08605 118.62592 23596 ft 421 kts 348°
2026-05-05 03:52 32.11494 118.61959 24046 ft 424 kts 348°
2026-05-05 03:52 32.14406 118.61319 24509 ft 426 kts 347°
2026-05-05 03:53 32.17326 118.60670 24970 ft 428 kts 347°
2026-05-05 03:53 32.20263 118.60012 25424 ft 431 kts 347°
2026-05-05 03:53 32.23218 118.59349 25858 ft 434 kts 347°
2026-05-05 03:53 32.26190 118.58682 26278 ft 436 kts 347°
2026-05-05 03:54 32.29182 118.58011 26687 ft 439 kts 347°
2026-05-05 03:54 32.32190 118.57336 27084 ft 441 kts 347°
2026-05-05 03:54 32.35214 118.56657 27471 ft 444 kts 347°
2026-05-05 03:54 32.38263 118.55973 27845 ft 447 kts 347°
2026-05-05 03:55 32.41324 118.55285 28217 ft 449 kts 347°
2026-05-05 03:55 32.44399 118.54594 28580 ft 451 kts 347°
2026-05-05 03:55 32.47495 118.53898 28933 ft 454 kts 347°
2026-05-05 03:55 32.50647 118.53520 29235 ft 460 kts
2026-05-05 03:56 32.53819 118.54139 29598 ft 465 kts 11°
2026-05-05 03:56 32.56966 118.55048 30022 ft 465 kts 12°
2026-05-05 03:56 32.60114 118.55945 30401 ft 465 kts 11°
2026-05-05 03:56 32.63263 118.56790 30787 ft 464 kts 10°
2026-05-05 03:57 32.66428 118.57460 31125 ft 461 kts
2026-05-05 03:57 32.69592 118.57172 31449 ft 455 kts 343°
2026-05-05 03:57 32.72621 118.56143 31886 ft 451 kts 340°
2026-05-05 03:57 32.75567 118.55047 32295 ft 449 kts 339°
2026-05-05 03:58 32.78585 118.53910 32656 ft 449 kts 339°
2026-05-05 03:58 32.81560 118.52801 33035 ft 448 kts 340°
2026-05-05 03:58 32.84530 118.51712 33426 ft 447 kts 340°
2026-05-05 03:58 32.87467 118.50648 33826 ft 446 kts 340°
2026-05-05 03:59 32.90436 118.49582 34161 ft 445 kts 340°
2026-05-05 03:59 32.93401 118.48520 34432 ft 445 kts 340°
2026-05-05 03:59 32.96367 118.47459 34686 ft 446 kts 340°
2026-05-05 03:59 32.99336 118.46395 34966 ft 445 kts 340°
2026-05-05 04:00 33.02310 118.45328 35087 ft 448 kts 340°
2026-05-05 04:00 33.05306 118.44251 35086 ft 451 kts 340°
2026-05-05 04:00 33.11294 118.42099 35081 ft 447 kts 340°
2026-05-05 04:01 33.17201 118.39973 35084 ft 442 kts 340°
2026-05-05 04:01 33.23084 118.37850 35089 ft 441 kts 340°
2026-05-05 04:02 33.28964 118.35735 35065 ft 442 kts 340°
2026-05-05 04:02 33.34843 118.33613 35082 ft 442 kts 340°
2026-05-05 04:03 33.40731 118.31489 35092 ft 442 kts 340°
2026-05-05 04:03 33.46622 118.29360 35085 ft 443 kts 340°
2026-05-05 04:04 33.51528 118.27584 35088 ft 443 kts 340°
2026-05-05 04:04 33.57430 118.25445 35084 ft 443 kts 340°
2026-05-05 04:05 33.63330 118.23303 35080 ft 443 kts 340°
2026-05-05 04:05 33.69232 118.21157 35078 ft 443 kts 340°
2026-05-05 04:06 33.75124 118.19012 35075 ft 443 kts 340°
2026-05-05 04:06 33.81012 118.16866 35072 ft 442 kts 340°
2026-05-05 04:07 33.86892 118.14728 35077 ft 441 kts 340°
2026-05-05 04:07 33.92773 118.12591 35068 ft 441 kts 340°
2026-05-05 04:08 33.98643 118.10454 35069 ft 440 kts 340°
2026-05-05 04:08 34.04503 118.08321 35074 ft 440 kts 341°
2026-05-05 04:09 34.10359 118.06197 35062 ft 439 kts 341°
2026-05-05 04:09 34.16214 118.04069 35067 ft 439 kts 341°
2026-05-05 04:10 34.22054 118.01942 35067 ft 438 kts 341°
2026-05-05 04:10 34.27895 117.99812 35066 ft 438 kts 341°
2026-05-05 04:11 34.33730 117.97720 35065 ft 438 kts 341°
2026-05-05 04:11 34.39571 117.95646 35058 ft 437 kts 341°
2026-05-05 04:12 34.45407 117.93567 35059 ft 437 kts 341°
2026-05-05 04:12 34.51199 117.91495 35057 ft 437 kts 341°
2026-05-05 04:13 34.57025 117.89408 35056 ft 436 kts 341°
2026-05-05 04:13 34.62842 117.87321 35052 ft 436 kts 341°
2026-05-05 04:14 34.68652 117.85233 35053 ft 435 kts 341°
2026-05-05 04:14 34.74457 117.83143 35048 ft 435 kts 341°
2026-05-05 04:15 34.80261 117.81052 35048 ft 435 kts 341°
2026-05-05 04:15 34.86052 117.78941 35051 ft 434 kts 341°
2026-05-05 04:16 34.91840 117.76821 35050 ft 434 kts 341°
2026-05-05 04:16 34.97628 117.74706 35046 ft 434 kts 341°
2026-05-05 04:17 35.03408 117.72589 35050 ft 434 kts 341°
2026-05-05 04:17 35.09189 117.70469 35044 ft 433 kts 341°
2026-05-05 04:18 35.14964 117.68352 35048 ft 433 kts 341°
2026-05-05 04:18 35.20731 117.66235 35037 ft 433 kts 341°
2026-05-05 04:19 35.26495 117.64115 35042 ft 432 kts 341°
2026-05-05 04:19 35.32252 117.61995 35042 ft 432 kts 341°
2026-05-05 04:20 35.38004 117.59873 35030 ft 432 kts 341°
2026-05-05 04:20 35.43754 117.57748 35029 ft 431 kts 341°
2026-05-05 04:21 35.49497 117.55624 35036 ft 431 kts 341°
2026-05-05 04:21 35.55241 117.53495 35022 ft 431 kts 341°
2026-05-05 04:22 35.60985 117.51364 35024 ft 431 kts 341°
2026-05-05 04:22 35.66721 117.49232 35015 ft 431 kts 341°
2026-05-05 04:23 35.72459 117.47096 35022 ft 431 kts 341°
2026-05-05 04:23 35.78191 117.44960 35012 ft 430 kts 341°
2026-05-05 04:24 35.83924 117.42819 35008 ft 430 kts 341°
2026-05-05 04:25 35.92479 117.39619 35006 ft 430 kts 341°
2026-05-05 04:25 35.98205 117.37473 35004 ft 430 kts 341°
2026-05-05 04:26 36.03934 117.35338 34996 ft 430 kts 342°
2026-05-05 04:26 36.09672 117.33223 35008 ft 430 kts 341°
2026-05-05 04:27 36.15408 117.31106 35001 ft 430 kts 341°
2026-05-05 04:27 36.21138 117.28983 34998 ft 430 kts 341°
2026-05-05 04:28 36.26865 117.26857 35002 ft 430 kts 341°
2026-05-05 04:28 36.32590 117.24729 34998 ft 430 kts 341°
2026-05-05 04:29 36.38311 117.22599 34988 ft 429 kts 341°
2026-05-05 04:29 36.44184 117.21218 34981 ft 433 kts 356°
2026-05-05 04:30 36.50221 117.21280 34987 ft 434 kts 358°
2026-05-05 04:30 36.56266 117.21390 34978 ft 434 kts 358°
2026-05-05 04:31 36.62305 117.21453 34978 ft 434 kts 358°
2026-05-05 04:31 36.68342 117.21496 34967 ft 434 kts 358°
2026-05-05 04:32 36.74377 117.21537 34963 ft 433 kts 358°
2026-05-05 04:32 36.80404 117.21581 34958 ft 433 kts 358°
2026-05-05 04:33 36.86390 117.22673 34951 ft 439 kts 13°
2026-05-05 04:33 36.92227 117.24949 34949 ft 440 kts 14°
2026-05-05 04:34 36.98057 117.27253 34950 ft 440 kts 14°
2026-05-05 04:34 37.03899 117.29514 34942 ft 439 kts 13°
2026-05-05 04:35 37.09748 117.31759 34939 ft 439 kts 13°
2026-05-05 04:35 37.15552 117.33989 34940 ft 439 kts 13°
2026-05-05 04:36 37.21397 117.36240 34938 ft 440 kts 13°
2026-05-05 04:36 37.27243 117.38495 34931 ft 440 kts 13°
2026-05-05 04:37 37.32805 117.41690 34941 ft 451 kts 37°
2026-05-05 04:37 37.34911 117.44645 34939 ft 459 kts 53°
2026-05-05 04:37 37.36341 117.48260 34925 ft 467 kts 70°
2026-05-05 04:38 37.37532 117.56325 34931 ft 471 kts 79°
2026-05-05 04:38 37.38475 117.64487 34931 ft 472 kts 79°
2026-05-05 04:39 37.39470 117.72659 34930 ft 473 kts 78°
2026-05-05 04:39 37.40511 117.80828 34931 ft 473 kts 78°
2026-05-05 04:40 37.41558 117.89001 34933 ft 474 kts 78°
2026-05-05 04:40 37.42599 117.97194 34933 ft 474 kts 78°
2026-05-05 04:40 37.43115 118.01279 34783 ft 469 kts 78°
2026-05-05 04:41 37.43619 118.05299 34842 ft 462 kts 78°
2026-05-05 04:41 37.44617 118.13250 34930 ft 461 kts 78°
2026-05-05 04:42 37.45616 118.21242 34936 ft 464 kts 78°
2026-05-05 04:42 37.46632 118.29271 34940 ft 466 kts 77°
2026-05-05 04:43 37.47663 118.37334 34935 ft 467 kts 78°
2026-05-05 04:43 37.48680 118.45356 34939 ft 467 kts 78°
2026-05-05 04:44 37.49695 118.53419 34938 ft 466 kts 78°
2026-05-05 04:44 37.50709 118.61519 34950 ft 471 kts 78°
2026-05-05 04:45 37.51722 118.69671 34950 ft 471 kts 78°
2026-05-05 04:45 37.52732 118.77832 34947 ft 471 kts 78°
2026-05-05 04:46 37.53492 118.86038 34956 ft 472 kts 82°
2026-05-05 04:46 37.54052 118.94285 34955 ft 472 kts 82°
2026-05-05 04:47 37.54619 119.02513 34963 ft 471 kts 82°
2026-05-05 04:47 37.55212 119.10720 34960 ft 470 kts 82°
2026-05-05 04:48 37.55810 119.18911 34963 ft 469 kts 82°
2026-05-05 04:48 37.56301 119.25717 34962 ft 469 kts 82°
2026-05-05 04:49 37.56983 119.35275 34960 ft 468 kts 82°
2026-05-05 04:49 37.57560 119.43444 34964 ft 468 kts 82°
2026-05-05 04:50 37.58131 119.51611 34965 ft 467 kts 82°
2026-05-05 04:50 37.58680 119.59766 34971 ft 467 kts 82°
2026-05-05 04:51 37.59221 119.67925 34969 ft 466 kts 82°
2026-05-05 04:51 37.59721 119.74684 34971 ft 466 kts 81°
2026-05-05 04:52 37.60344 119.82814 34973 ft 466 kts 82°
2026-05-05 04:52 37.60958 119.90941 34978 ft 465 kts 82°
2026-05-05 04:53 37.61559 119.99060 34974 ft 465 kts 82°
2026-05-05 04:53 37.62152 120.07178 34978 ft 465 kts 82°
2026-05-05 04:54 37.62740 120.15305 34978 ft 465 kts 82°
2026-05-05 04:54 37.63322 120.23417 34982 ft 465 kts 82°
2026-05-05 04:55 37.63895 120.31482 34988 ft 465 kts 82°
2026-05-05 04:55 37.64467 120.39597 34988 ft 465 kts 82°
2026-05-05 04:56 37.65040 120.47725 34992 ft 464 kts 80°
2026-05-05 04:56 37.65852 120.51617 34987 ft 456 kts 62°
2026-05-05 04:56 37.67497 120.54991 35006 ft 449 kts 47°
2026-05-05 04:56 37.69717 120.57712 34993 ft 444 kts 33°
2026-05-05 04:57 37.72323 120.59783 35002 ft 442 kts 28°
2026-05-05 04:57 37.77679 120.63608 34986 ft 443 kts 27°
2026-05-05 04:58 37.83044 120.67467 34988 ft 444 kts 28°
2026-05-05 04:58 37.88391 120.71410 34987 ft 445 kts 28°
2026-05-05 04:59 37.93737 120.75384 34994 ft 446 kts 28°
2026-05-05 04:59 37.99095 120.79370 34985 ft 447 kts 28°
2026-05-05 05:00 38.04452 120.83368 34988 ft 447 kts 28°
2026-05-05 05:00 38.09805 120.87388 34981 ft 447 kts 28°
2026-05-05 05:01 38.15159 120.91416 34985 ft 447 kts 28°
2026-05-05 05:01 38.20513 120.95448 34987 ft 447 kts 29°
2026-05-05 05:01 38.23046 120.97785 35200 ft 458 kts 37°
2026-05-05 05:02 38.25262 121.00790 35120 ft 473 kts 47°
2026-05-05 05:02 38.27088 121.04349 35062 ft 487 kts 59°
2026-05-05 05:02 38.28523 121.08283 35009 ft 493 kts 62°
2026-05-05 05:03 38.31166 121.16273 34993 ft 492 kts 63°
2026-05-05 05:03 38.33850 121.24276 34995 ft 491 kts 62°
2026-05-05 05:04 38.36593 121.32217 35005 ft 489 kts 62°
2026-05-05 05:04 38.39336 121.40137 35004 ft 488 kts 62°
2026-05-05 05:05 38.42101 121.48024 35008 ft 486 kts 60°
2026-05-05 05:05 38.45151 121.55696 35015 ft 484 kts 58°
2026-05-05 05:06 38.48265 121.63297 34733 ft 479 kts 60°
2026-05-05 05:06 38.49758 121.66993 34842 ft 458 kts 60°
2026-05-05 05:06 38.51188 121.70564 34903 ft 448 kts 60°
2026-05-05 05:07 38.54000 121.77616 35004 ft 444 kts 60°
2026-05-05 05:07 38.56794 121.84649 35020 ft 444 kts 60°
2026-05-05 05:08 38.59587 121.91700 35026 ft 445 kts 60°
2026-05-05 05:08 38.62379 121.98763 35024 ft 446 kts 60°
2026-05-05 05:09 38.65175 122.05848 35026 ft 446 kts 60°
2026-05-05 05:09 38.68087 122.12853 35017 ft 444 kts 53°
2026-05-05 05:10 38.72293 122.18528 35028 ft 438 kts 34°
2026-05-05 05:10 38.77439 122.22651 35031 ft 437 kts 28°
2026-05-05 05:11 38.82657 122.26650 35033 ft 437 kts 29°
2026-05-05 05:11 38.87812 122.30706 35030 ft 438 kts 30°
2026-05-05 05:12 38.93026 122.34841 35031 ft 438 kts 30°
2026-05-05 05:12 38.98177 122.38928 35033 ft 438 kts 30°
2026-05-05 05:13 39.03366 122.43053 35038 ft 439 kts 30°
2026-05-05 05:13 39.08559 122.47187 35039 ft 439 kts 30°
2026-05-05 05:14 39.13750 122.51328 35035 ft 439 kts 30°
2026-05-05 05:14 39.18945 122.55481 35037 ft 440 kts 30°
2026-05-05 05:15 39.24145 122.59643 35039 ft 440 kts 30°
2026-05-05 05:15 39.29393 122.63717 35045 ft 440 kts 27°
2026-05-05 05:16 39.34764 122.67519 35043 ft 440 kts 26°
2026-05-05 05:16 39.40145 122.71290 35047 ft 441 kts 26°
2026-05-05 05:17 39.45526 122.75108 35047 ft 441 kts 27°
2026-05-05 05:17 39.50896 122.78948 35042 ft 441 kts 27°
2026-05-05 05:18 39.56268 122.82802 35045 ft 441 kts 26°
2026-05-05 05:18 39.61642 122.86663 35049 ft 442 kts 26°
2026-05-05 05:19 39.66981 122.90506 35048 ft 442 kts 26°
2026-05-05 05:19 39.72363 122.94386 35046 ft 443 kts 26°
2026-05-05 05:20 39.77752 122.98277 35046 ft 443 kts 26°
2026-05-05 05:20 39.83138 123.02175 35045 ft 443 kts 26°
2026-05-05 05:21 39.88523 123.06079 35051 ft 443 kts 26°
2026-05-05 05:21 39.93913 123.09993 35035 ft 443 kts 26°
2026-05-05 05:21 39.96615 123.11958 34310 ft 447 kts 26°
2026-05-05 05:22 39.99316 123.13924 33603 ft 443 kts 26°
2026-05-05 05:22 40.02007 123.15886 32819 ft 443 kts 26°
2026-05-05 05:22 40.04708 123.17852 32072 ft 446 kts 26°
2026-05-05 05:22 40.07428 123.19822 31343 ft 448 kts 26°
2026-05-05 05:23 40.10168 123.21795 30631 ft 451 kts 26°
2026-05-05 05:23 40.12929 123.23777 29914 ft 456 kts 26°
2026-05-05 05:23 40.15726 123.25787 29126 ft 462 kts 26°
2026-05-05 05:23 40.18560 123.27825 28337 ft 467 kts 26°
2026-05-05 05:24 40.21409 123.29882 27574 ft 467 kts 26°
2026-05-05 05:24 40.24252 123.31940 26827 ft 467 kts 26°
2026-05-05 05:24 40.27103 123.34005 26093 ft 468 kts 26°
2026-05-05 05:24 40.29950 123.36067 25386 ft 468 kts 26°
2026-05-05 05:25 40.32800 123.38134 24697 ft 469 kts 26°
2026-05-05 05:25 40.35650 123.40204 24017 ft 468 kts 26°
2026-05-05 05:25 40.38496 123.42270 23401 ft 465 kts 26°
2026-05-05 05:25 40.41291 123.44304 23001 ft 457 kts 26°
2026-05-05 05:26 40.44070 123.46326 22531 ft 457 kts 26°
2026-05-05 05:26 40.46849 123.48350 22084 ft 457 kts 26°
2026-05-05 05:26 40.49629 123.50379 21634 ft 456 kts 26°
2026-05-05 05:26 40.52401 123.52402 21197 ft 455 kts 26°
2026-05-05 05:27 40.55162 123.54419 20769 ft 453 kts 26°
2026-05-05 05:27 40.57909 123.56432 20342 ft 451 kts 27°
2026-05-05 05:27 40.63012 123.61197 19508 ft 449 kts 36°
2026-05-05 05:28 40.65389 123.63767 19106 ft 447 kts 37°
2026-05-05 05:28 40.67780 123.66371 18706 ft 445 kts 37°
2026-05-05 05:28 40.70174 123.68943 18314 ft 443 kts 37°
2026-05-05 05:28 40.72572 123.71476 17884 ft 441 kts 36°
2026-05-05 05:29 40.74976 123.73986 17427 ft 439 kts 36°
2026-05-05 05:29 40.77371 123.76471 16991 ft 437 kts 36°
2026-05-05 05:29 40.79749 123.78936 16538 ft 431 kts 36°
2026-05-05 05:29 40.82095 123.81370 16105 ft 426 kts 36°
2026-05-05 05:30 40.84413 123.83780 15687 ft 423 kts 36°
2026-05-05 05:30 40.86721 123.86179 15271 ft 423 kts 36°
2026-05-05 05:30 40.89030 123.88585 14858 ft 423 kts 36°
2026-05-05 05:30 40.91354 123.90962 14450 ft 419 kts 33°
2026-05-05 05:31 40.93814 123.92973 14037 ft 413 kts 26°
2026-05-05 05:31 40.96345 123.94740 13638 ft 409 kts 24°
2026-05-05 05:31 40.98871 123.96437 13188 ft 407 kts 24°
2026-05-05 05:31 41.01382 123.98145 12752 ft 405 kts 24°
2026-05-05 05:32 41.03874 123.99883 12329 ft 404 kts 24°
2026-05-05 05:32 41.06347 124.01644 11875 ft 402 kts 24°
2026-05-05 05:32 41.08795 124.03406 11462 ft 400 kts 24°
2026-05-05 05:32 41.11238 124.05168 11065 ft 399 kts 24°
2026-05-05 05:33 41.13674 124.06924 10640 ft 398 kts 24°
2026-05-05 05:33 41.16104 124.08681 10225 ft 397 kts 25°
2026-05-05 05:33 41.18517 124.10431 9832 ft 394 kts 24°
2026-05-05 05:33 41.20915 124.12169 9408 ft 391 kts 24°
2026-05-05 05:34 41.23292 124.13891 8982 ft 388 kts 24°
2026-05-05 05:34 41.25666 124.15612 8549 ft 389 kts 24°
2026-05-05 05:34 41.28038 124.17334 8149 ft 388 kts 24°
2026-05-05 05:34 41.30396 124.19047 7849 ft 384 kts 24°
2026-05-05 05:35 41.32745 124.20746 7615 ft 387 kts 24°
2026-05-05 05:35 41.35091 124.22449 7296 ft 376 kts 24°
2026-05-05 05:35 41.37320 124.24077 6976 ft 354 kts 23°
2026-05-05 05:35 41.39418 124.25606 6702 ft 335 kts 23°
2026-05-05 05:36 41.41415 124.27061 6421 ft 321 kts 23°
2026-05-05 05:36 41.43353 124.28422 6108 ft 306 kts 14°
2026-05-05 05:36 41.45333 124.28889 5913 ft 278 kts 348°
2026-05-05 05:36 41.47144 124.28360 5779 ft 260 kts 329°
2026-05-05 05:37 41.48690 124.27226 5650 ft 251 kts 313°
2026-05-05 05:37 41.49986 124.25677 5564 ft 251 kts 308°
2026-05-05 05:37 41.51224 124.24026 5494 ft 251 kts 306°
2026-05-05 05:37 41.52442 124.22375 5413 ft 249 kts 306°
2026-05-05 05:38 41.53642 124.20746 5309 ft 249 kts 307°
2026-05-05 05:38 41.54881 124.19066 5222 ft 253 kts 305°
2026-05-05 05:38 41.56130 124.17378 5071 ft 257 kts 306°
2026-05-05 05:38 41.57369 124.15691 5025 ft 258 kts 305°
2026-05-05 05:39 41.58654 124.13987 4919 ft 261 kts 306°
2026-05-05 05:39 41.59922 124.12302 4936 ft 254 kts 306°
2026-05-05 05:39 41.61169 124.10637 4925 ft 254 kts 306°
2026-05-05 05:39 41.62420 124.08961 4925 ft 254 kts 307°
2026-05-05 05:40 41.63670 124.07288 4922 ft 255 kts 307°
2026-05-05 05:40 41.64518 124.06151 4888 ft 255 kts 306°
2026-05-05 05:40 41.66182 124.03917 4918 ft 258 kts 306°
2026-05-05 05:40 41.67441 124.02219 4937 ft 256 kts 306°
2026-05-05 05:41 41.68701 124.00522 4911 ft 257 kts 306°
2026-05-05 05:41 41.69540 123.99393 4897 ft 259 kts 307°
2026-05-05 05:41 41.70804 123.97690 4914 ft 257 kts 306°
2026-05-05 05:41 41.72089 123.95957 4891 ft 260 kts 307°
2026-05-05 05:42 41.73369 123.94235 4905 ft 262 kts 306°
2026-05-05 05:42 41.74640 123.92527 4898 ft 262 kts 307°
2026-05-05 05:42 41.75934 123.90787 4871 ft 256 kts 306°
2026-05-05 05:42 41.77148 123.89151 4736 ft 245 kts 306°
2026-05-05 05:43 41.78336 123.87579 4596 ft 237 kts 308°
2026-05-05 05:43 41.79574 123.86110 4490 ft 239 kts 310°
2026-05-05 05:43 41.80830 123.84665 4339 ft 237 kts 310°
2026-05-05 05:43 41.82071 123.83235 4225 ft 234 kts 310°
2026-05-05 05:44 41.83211 123.81729 4074 ft 223 kts 293°
2026-05-05 05:44 41.83620 123.79846 3946 ft 205 kts 260°
2026-05-05 05:44 41.83331 123.78054 3923 ft 192 kts 241°
2026-05-05 05:44 41.82631 123.76614 3898 ft 178 kts 228°
2026-05-05 05:45 41.81840 123.75364 3896 ft 172 kts 227°
2026-05-05 05:45 41.81055 123.74162 3895 ft 172 kts 226°
2026-05-05 05:45 41.80257 123.72952 3881 ft 173 kts 226°
2026-05-05 05:45 41.79449 123.71728 3886 ft 178 kts 226°
2026-05-05 05:46 41.78619 123.70474 3897 ft 179 kts 226°
2026-05-05 05:46 41.77799 123.69233 3882 ft 178 kts 226°
2026-05-05 05:46 41.76967 123.67977 3678 ft 183 kts 225°
2026-05-05 05:46 41.76121 123.66699 3449 ft 184 kts 225°
2026-05-05 05:47 41.75287 123.65435 3204 ft 178 kts 225°
2026-05-05 05:47 41.74497 123.64239 3000 ft 166 kts 225°
2026-05-05 05:47 41.73747 123.63104 2785 ft 159 kts 225°
2026-05-05 05:47 41.73029 123.62017 2593 ft 152 kts 224°
2026-05-05 05:48 41.72330 123.60963 2373 ft 150 kts 224°
2026-05-05 05:48 41.71647 123.59924 2165 ft 148 kts 225°
2026-05-05 05:48 41.70982 123.58919 1999 ft 142 kts 224°
2026-05-05 05:48 41.70335 123.57938 1800 ft 139 kts 225°
2026-05-05 05:49 41.69720 123.57008 1621 ft 127 kts 224°
2026-05-05 05:49 41.69169 123.56173 1454 ft 116 kts 224°
2026-05-05 05:49 41.68654 123.55395 1332 ft 116 kts 223°
2026-05-05 05:49 41.68125 123.54592 1164 ft 113 kts 223°
2026-05-05 05:50 41.67608 123.53815 1032 ft 114 kts 225°
2026-05-05 05:50 41.67058 123.52962 868 ft 123 kts 224°
2026-05-05 05:50 41.66517 123.52150 698 ft 121 kts 228°
2026-05-05 05:50 41.65961 123.51294 553 ft 123 kts 218°
2026-05-05 05:51 41.65365 123.50396 372 ft 133 kts 226°
2026-05-05 05:51 41.64766 123.49498 203 ft 121 kts 227°
2026-05-05 05:51 41.64332 123.48846 208 ft 62 kts 228°
2026-05-05 05:51 41.64190 123.48631 209 ft 6 kts 229°
2026-05-05 05:52 41.64135 123.48548 214 ft 20 kts 228°
2026-05-05 05:52 41.64006 123.48354 206 ft 36 kts 228°
2026-05-05 05:52 41.63814 123.48068 209 ft 37 kts 227°
2026-05-05 05:52 41.63637 123.47929 204 ft 22 kts 199°
2026-05-05 05:53 41.63587 123.47905 206 ft 9 kts 199°
2026-05-05 05:53 41.63518 123.47873 203 ft 1 kts 199°
2026-05-05 05:53 41.63506 123.47868 203 ft 3 kts 198°
2026-05-05 05:53 41.63454 123.47847 207 ft 12 kts 196°
2026-05-05 05:54 41.63370 123.47853 207 ft 13 kts 145°
2026-05-05 05:54 41.63315 123.47938 199 ft 12 kts 98°
2026-05-05 05:54 41.63317 123.47975 199 ft 0 kts 73°
2026-05-05 05:54 41.63332 123.47998 213 ft 6 kts 43°
2026-05-05 05:55 41.63374 123.48031 204 ft 8 kts 356°
2026-05-05 05:55 41.63417 123.47991 209 ft 0 kts 319°